This is the latest recevied weather packets stored in our database for station/object WB5TZJ. If no packets are shown the sender has not sent any weather packets the latest 10 day(s).
| Time | Temp. | Humidity | Pressure | Rain* | Wind** | Luminosity | Snow |
|---|---|---|---|---|---|---|---|
| 1777605049 | 22.78° C | 50% | 1009.8 hPa | 0 mm | - | - | - |
| 1777604449 | 22.78° C | 46% | 1009.8 hPa | 0 mm | - | - | - |
| 1777603849 | 22.78° C | 48% | 1010.4 hPa | 0 mm | - | - | - |
| 1777603249 | 22.78° C | 52% | 1010.8 hPa | 0 mm | - | - | - |
| 1777602649 | 22.22° C | 49% | 1010.4 hPa | 0 mm | - | - | - |
| 1777602049 | 22.78° C | 46% | 1010.4 hPa | 0 mm | - | - | - |
| 1777601449 | 22.78° C | 52% | 1009.8 hPa | 0 mm | - | - | - |
| 1777600849 | 22.78° C | 50% | 1009.4 hPa | 0 mm | - | - | - |
| 1777600249 | 22.22° C | 47% | 1009.1 hPa | 0 mm | - | - | - |
| 1777599649 | 22.78° C | 47% | 1008.8 hPa | 0 mm | - | - | - |
| 1777599049 | 22.78° C | 46% | 1008.8 hPa | 0 mm | - | - | - |
| 1777598449 | 22.78° C | 45% | 1009.1 hPa | 0 mm | - | - | - |
| 1777597849 | 22.78° C | 48% | 1009.1 hPa | 0 mm | - | - | - |
| 1777597249 | 22.78° C | 49% | 1009.4 hPa | 0 mm | - | - | - |
| 1777596649 | 22.78° C | 44% | 1009.1 hPa | 0 mm | - | - | - |
| 1777596049 | 22.78° C | 47% | 1009.1 hPa | 0 mm | - | - | - |
| 1777595449 | 22.78° C | 50% | 1008.4 hPa | 0 mm | - | - | - |
| 1777594849 | 22.78° C | 48% | 1008.4 hPa | 0 mm | - | - | - |
| 1777594249 | 22.78° C | 46% | 1008.4 hPa | 0 mm | - | - | - |
| 1777593649 | 22.78° C | 51% | 1007.7 hPa | 0 mm | - | - | - |
| 1777593049 | 22.78° C | 54% | 1006.7 hPa | 0 mm | - | - | - |
| 1777592449 | 22.22° C | 47% | 1007.4 hPa | 0 mm | - | - | - |
| 1777591849 | 22.22° C | 49% | 1008.1 hPa | 0 mm | - | - | - |
| 1777591249 | 22.78° C | 47% | 1007.7 hPa | 0 mm | - | - | - |
| 1777590649 | 22.78° C | 45% | 1008.1 hPa | 0 mm | - | - | - |
* Rain latest hour (hover to see other rain measurements)
** Current wind speed in m/s (hover to see current wind gust speed)